Date,TemperatureHighF,TemperatureAvgF,TemperatureLowF,DewpointHighF,DewpointAvgF,DewpointLowF,HumidityHigh,HumidityAvg,HumidityLow,PressureMaxIn,PressureMinIn,WindSpeedMaxMPH,WindSpeedAvgMPH,GustSpeedMaxMPH,PrecipitationSumIn
2013-1-1,49,40,30,-100,-100,-100,0,0,100,0.00,40.00,0,-999,0,0.00
2013-1-2,55,41,30,-100,-100,-100,0,0,100,0.00,40.00,0,-999,0,0.00
2013-1-3,58,42,30,-100,-100,-100,0,0,100,0.00,40.00,0,-999,0,0.00
2013-1-4,55,44,30,-100,-100,-100,0,0,100,0.00,40.00,0,-999,0,0.00
2013-1-5,54,44,32,-100,-100,-100,0,0,100,0.00,40.00,0,-999,0,0.00
2013-1-6,53,48,43,-100,-100,-100,0,0,100,0.00,40.00,0,-999,0,0.00
2013-1-7,59,48,35,-100,-100,-100,0,0,100,0.00,40.00,0,-999,0,0.00
2013-1-8,67,52,37,-100,-100,-100,0,0,100,0.00,40.00,0,-999,0,0.00
2013-1-9,65,57,42,-100,-100,-100,0,0,100,0.00,40.00,0,-999,0,0.00
2013-1-10,50,44,37,-100,-100,-100,0,0,100,0.00,40.00,0,-999,0,0.00
2013-1-11,45,39,35,-100,-100,-100,0,0,100,0.00,40.00,0,-999,0,0.00
2013-1-12,45,37,28,-100,-100,-100,0,0,100,0.00,40.00,0,-999,0,0.00
2013-1-13,46,35,22,-100,-100,-100,0,0,100,0.00,40.00,0,-999,0,0.00
2013-1-14,41,33,20,-100,-100,-100,0,0,100,0.00,40.00,0,-999,0,0.00
2013-1-15,51,40,26,-100,-100,-100,0,0,100,0.00,40.00,0,-999,0,0.00
2013-1-16,59,46,32,-100,-100,-100,0,0,100,0.00,40.00,0,-999,0,0.00
2013-1-17,64,48,33,-100,-100,-100,0,0,100,0.00,40.00,0,-999,0,0.00
2013-1-18,64,50,36,-100,-100,-100,0,0,100,0.00,40.00,0,-999,0,0.00
2013-1-19,66,51,35,-100,-100,-100,0,0,100,0.00,40.00,0,-999,0,0.00
2013-1-20,65,49,34,-100,-100,-100,0,0,100,0.00,40.00,0,-999,0,0.00
2013-1-21,69,51,36,-100,-100,-100,0,0,100,0.00,40.00,0,-999,0,0.00
2013-1-22,65,53,36,-100,-100,-100,0,0,100,0.00,40.00,0,-999,0,0.00
2013-1-23,65,57,46,-100,-100,-100,0,0,100,0.00,40.00,0,-999,0,0.00
2013-1-24,58,54,49,-100,-100,-100,0,0,100,0.00,40.00,0,-999,0,0.00
2013-1-25,56,54,52,-100,-100,-100,0,0,100,0.00,40.00,0,-999,0,0.00
2013-1-26,64,55,53,-100,-100,-100,0,0,100,0.00,40.00,0,-999,0,0.00
2013-1-27,55,47,42,-100,-100,-100,0,0,100,0.00,40.00,0,-999,0,0.00
2013-1-28,53,45,40,-100,-100,-100,0,0,100,0.00,40.00,0,-999,0,0.00
2013-1-29,63,50,37,-100,-100,-100,0,0,100,0.00,40.00,0,-999,0,0.00
2013-1-30,65,52,39,-100,-100,-100,0,0,100,0.00,40.00,0,-999,0,0.00
2013-1-31,69,58,41,-100,-100,-100,0,0,100,0.00,40.00,0,-999,0,0.00
2013-2-1,69,54,42,-100,-100,-100,0,0,100,0.00,40.00,0,-999,0,0.00
2013-2-2,67,58,49,-100,-100,-100,0,0,100,0.00,40.00,0,-999,0,0.00
2013-2-3,69,61,48,-100,-100,-100,0,0,100,0.00,40.00,0,-999,0,0.00
2013-2-4,70,58,45,-100,-100,-100,0,0,100,0.00,40.00,0,-999,0,0.00
2013-2-5,73,60,46,-100,-100,-100,0,0,100,0.00,40.00,0,-999,0,0.00
2013-2-6,69,56,43,-100,-100,-100,0,0,100,0.00,40.00,0,-999,0,0.00
2013-2-7,69,52,40,-100,-100,-100,0,0,100,0.00,40.00,0,-999,0,0.00
2013-2-8,53,42,39,-100,-100,-100,0,0,100,0.00,40.00,0,-999,0,0.00
2013-2-9,56,46,37,-100,-100,-100,0,0,100,0.00,40.00,0,-999,0,0.00
2013-2-10,54,49,42,-100,-100,-100,0,0,100,0.00,40.00,0,-999,0,0.00
2013-2-11,54,45,33,-100,-100,-100,0,0,100,0.00,40.00,0,-999,0,0.00
2013-2-12,59,45,33,-100,-100,-100,0,0,100,0.00,40.00,0,-999,0,0.00
2013-2-13,65,51,37,-100,-100,-100,0,0,100,0.00,40.00,0,-999,0,0.00
2013-2-14,67,53,40,-100,-100,-100,0,0,100,0.00,40.00,0,-999,0,0.00
2013-2-15,69,55,40,-100,-100,-100,0,0,100,0.00,40.00,0,-999,0,0.00
2013-2-16,70,54,42,-100,-100,-100,0,0,100,0.00,40.00,0,-999,0,0.00
2013-2-17,72,61,45,-100,-100,-100,0,0,100,0.00,40.00,0,-999,0,0.00
2013-2-18,69,58,47,-100,-100,-100,0,0,100,0.00,40.00,0,-999,0,0.00
2013-2-19,54,46,40,-100,-100,-100,0,0,100,0.00,40.00,0,-999,0,0.00
2013-2-20,51,43,36,-100,-100,-100,0,0,100,0.00,40.00,0,-999,0,0.00
2013-2-21,54,46,40,-100,-100,-100,0,0,100,0.00,40.00,0,-999,0,0.00
2013-2-22,62,51,35,-100,-100,-100,0,0,100,0.00,40.00,0,-999,0,0.00
2013-2-23,64,53,43,-100,-100,-100,0,0,100,0.00,40.00,0,-999,0,0.00
2013-2-24,56,47,35,-100,-100,-100,0,0,100,0.00,40.00,0,-999,0,0.00
2013-2-25,69,51,36,-100,-100,-100,0,0,100,0.00,40.00,0,-999,0,0.00
2013-2-26,64,50,37,-100,-100,-100,0,0,100,0.00,40.00,0,-999,0,0.00
2013-2-27,62,51,36,-100,-100,-100,0,0,100,0.00,40.00,0,-999,0,0.00
2013-2-28,68,52,40,-100,-100,-100,0,0,100,0.00,40.00,0,-999,0,0.00
2013-3-1,76,58,40,-100,-100,-100,0,0,100,0.00,40.00,0,-999,0,0.00
2013-3-2,80,63,46,-100,-100,-100,0,0,100,0.00,40.00,0,-999,0,0.00
2013-3-3,71,65,57,-100,-100,-100,0,0,100,0.00,40.00,0,-999,0,0.00
2013-3-4,73,63,51,-100,-100,-100,0,0,100,0.00,40.00,0,-999,0,0.00
2013-3-5,74,59,48,-100,-100,-100,0,0,100,0.00,40.00,0,-999,0,0.00
2013-3-6,60,53,47,-100,-100,-100,0,0,100,0.00,40.00,0,-999,0,0.00
2013-3-7,58,51,47,-100,-100,-100,0,0,100,0.00,40.00,0,-999,0,0.00
2013-3-8,52,46,40,-100,-100,-100,0,0,100,0.00,40.00,0,-999,0,0.00
2013-3-9,62,51,41,-100,-100,-100,0,0,100,0.00,40.00,0,-999,0,0.00
2013-3-10,69,58,38,-100,-100,-100,0,0,100,0.00,40.00,0,-999,0,0.00
2013-3-11,75,58,43,-100,-100,-100,0,0,100,0.00,40.00,0,-999,0,0.00
2013-3-12,80,64,49,-100,-100,-100,0,0,100,0.00,40.00,0,-999,0,0.00
2013-3-13,86,68,51,-100,-100,-100,0,0,100,0.00,40.00,0,-999,0,0.00
2013-3-14,90,76,57,-100,-100,-100,0,0,100,0.00,40.00,0,-999,0,0.00
2013-3-15,91,75,62,-100,-100,-100,0,0,100,0.00,40.00,0,-999,0,0.00
2013-3-16,84,69,58,-100,-100,-100,0,0,100,0.00,40.00,0,-999,0,0.00
2013-3-17,82,68,58,-100,-100,-100,0,0,100,0.00,40.00,0,-999,0,0.00
2013-3-18,80,68,53,-100,-100,-100,0,0,100,0.00,40.00,0,-999,0,0.00
2013-3-19,83,69,58,-100,-100,-100,0,0,100,0.00,40.00,0,-999,0,0.00
2013-3-20,77,66,58,-100,-100,-100,0,0,100,0.00,40.00,0,-999,0,0.00
2013-3-21,81,65,55,-100,-100,-100,0,0,100,0.00,40.00,0,-999,0,0.00
2013-3-22,76,62,48,-100,-100,-100,0,0,100,0.00,40.00,0,-999,0,0.00
2013-3-23,76,59,44,-100,-100,-100,0,0,100,0.00,40.00,0,-999,0,0.00
2013-3-24,76,63,46,-100,-100,-100,0,0,100,0.00,40.00,0,-999,0,0.00
2013-3-25,83,68,52,-100,-100,-100,0,0,100,0.00,40.00,0,-999,0,0.00
2013-3-26,82,70,56,-100,-100,-100,0,0,100,0.00,40.00,0,-999,0,0.00
2013-3-27,76,71,61,-100,-100,-100,0,0,100,0.00,40.00,0,-999,0,0.00
2013-3-28,80,66,54,-100,-100,-100,0,0,100,0.00,40.00,0,-999,0,0.00
2013-3-29,83,67,53,-100,-100,-100,0,0,100,0.00,40.00,0,-999,0,0.00
2013-3-30,81,72,58,-100,-100,-100,0,0,100,0.00,40.00,0,-999,0,0.00
2013-3-31,68,62,54,-100,-100,-100,0,0,100,0.00,40.00,0,-999,0,0.00
2013-4-1,69,62,51,-100,-100,-100,0,0,100,0.00,40.00,0,-999,0,0.00
2013-4-2,79,65,51,-100,-100,-100,0,0,100,0.00,40.00,0,-999,0,0.00
2013-4-3,85,71,52,-100,-100,-100,0,0,100,0.00,40.00,0,-999,0,0.00
2013-4-4,81,70,61,-100,-100,-100,0,0,100,0.00,40.00,0,-999,0,0.00
2013-4-5,76,67,58,-100,-100,-100,0,0,100,0.00,40.00,0,-999,0,0.00
2013-4-6,77,67,56,-100,-100,-100,0,0,100,0.00,40.00,0,-999,0,0.00
2013-4-7,76,65,58,-100,-100,-100,0,0,100,0.00,40.00,0,-999,0,0.00
2013-4-8,61,55,51,-100,-100,-100,0,0,100,0.00,40.00,0,-999,0,0.00
2013-4-9,69,58,45,-100,-100,-100,0,0,100,0.00,40.00,0,-999,0,0.00
2013-4-10,80,63,46,-100,-100,-100,0,0,100,0.00,40.00,0,-999,0,0.00
2013-4-11,83,71,62,-100,-100,-100,0,0,100,0.00,40.00,0,-999,0,0.00
2013-4-12,87,71,54,-100,-100,-100,0,0,100,0.00,40.00,0,-999,0,0.00
2013-4-13,83,73,62,-100,-100,-100,0,0,100,0.00,40.00,0,-999,0,0.00
2013-4-14,79,66,55,-100,-100,-100,0,0,100,0.00,40.00,0,-999,0,0.00
2013-4-15,66,59,52,-100,-100,-100,0,0,100,0.00,40.00,0,-999,0,0.00
2013-4-16,60,53,43,-100,-100,-100,0,0,100,0.00,40.00,0,-999,0,0.00
2013-4-17,65,58,43,-100,-100,-100,0,0,100,0.00,40.00,0,-999,0,0.00
2013-4-18,69,58,45,-100,-100,-100,0,0,100,0.00,40.00,0,-999,0,0.00
2013-4-19,82,64,47,-100,-100,-100,0,0,100,0.00,40.00,0,-999,0,0.00
2013-4-20,86,74,61,-100,-100,-100,0,0,100,0.00,40.00,0,-999,0,0.00
2013-4-21,94,75,58,-100,-100,-100,0,0,100,0.00,40.00,0,-999,0,0.00
2013-4-22,91,77,66,-100,-100,-100,0,0,100,0.00,40.00,0,-999,0,0.00
2013-4-23,83,73,60,-100,-100,-100,0,0,100,0.00,40.00,0,-999,0,0.00
2013-4-24,86,71,60,-100,-100,-100,0,0,100,0.00,40.00,0,-999,0,0.00
2013-4-25,79,67,55,-100,-100,-100,0,0,100,0.00,40.00,0,-999,0,0.00
2013-4-26,91,72,58,-100,-100,-100,0,0,100,0.00,40.00,0,-999,0,0.00
2013-4-27,91,73,60,-100,-100,-100,0,0,100,0.00,40.00,0,-999,0,0.00
2013-4-28,98,83,66,-100,-100,-100,0,0,100,0.00,40.00,0,-999,0,0.00
2013-4-29,98,80,64,-100,-100,-100,0,0,100,0.00,40.00,0,-999,0,0.00
2013-4-30,90,73,65,-100,-100,-100,0,0,100,0.00,40.00,0,-999,0,0.00
2013-5-1,84,74,58,-100,-100,-100,0,0,100,0.00,40.00,0,-999,0,0.00
2013-5-2,81,69,56,-100,-100,-100,0,0,100,0.00,40.00,0,-999,0,0.00
2013-5-3,83,69,54,-100,-100,-100,0,0,100,0.00,40.00,0,-999,0,0.00
2013-5-4,87,74,63,-100,-100,-100,0,0,100,0.00,40.00,0,-999,0,0.00
2013-5-5,69,61,55,-100,-100,-100,0,0,100,0.00,40.00,0,-999,0,0.00
2013-5-6,67,60,53,-100,-100,-100,0,0,100,0.00,40.00,0,-999,0,0.00
2013-5-7,73,60,54,-100,-100,-100,0,0,100,0.00,40.00,0,-999,0,0.00
2013-5-8,76,64,54,-100,-100,-100,0,0,100,0.00,40.00,0,-999,0,0.00
2013-5-9,80,66,56,-100,-100,-100,0,0,100,0.00,40.00,0,-999,0,0.00
2013-5-10,89,73,58,-100,-100,-100,0,0,100,0.00,40.00,0,-999,0,0.00
2013-5-11,94,79,65,-100,-100,-100,0,0,100,0.00,40.00,0,-999,0,0.00
2013-5-12,98,86,71,-100,-100,-100,0,0,100,0.00,40.00,0,-999,0,0.00
2013-5-13,102,88,73,-100,-100,-100,0,0,100,0.00,40.00,0,-999,0,0.00
2013-5-14,92,80,73,-100,-100,-100,0,0,100,0.00,40.00,0,-999,0,0.00
2013-5-15,91,79,69,-100,-100,-100,0,0,100,0.00,40.00,0,-999,0,0.00
2013-5-16,86,72,65,-100,-100,-100,0,0,100,0.00,40.00,0,-999,0,0.00
2013-5-17,79,66,60,-100,-100,-100,0,0,100,0.00,40.00,0,-999,0,0.00
2013-5-18,90,71,58,-100,-100,-100,0,0,100,0.00,40.00,0,-999,0,0.00
2013-5-19,87,75,64,-100,-100,-100,0,0,100,0.00,40.00,0,-999,0,0.00
2013-5-20,88,77,60,-100,-100,-100,0,0,100,0.00,40.00,0,-999,0,0.00
2013-5-21,92,79,66,-100,-100,-100,0,0,100,0.00,40.00,0,-999,0,0.00
2013-5-22,83,74,62,-100,-100,-100,0,0,100,0.00,40.00,0,-999,0,0.00
2013-5-23,78,66,56,-100,-100,-100,0,0,100,0.00,40.00,0,-999,0,0.00
2013-5-24,83,66,53,-100,-100,-100,0,0,100,0.00,40.00,0,-999,0,0.00
2013-5-25,80,69,59,-100,-100,-100,0,0,100,0.00,40.00,0,-999,0,0.00
2013-5-26,83,68,60,-100,-100,-100,0,0,100,0.00,40.00,0,-999,0,0.00
2013-5-27,89,75,64,-100,-100,-100,0,0,100,0.00,40.00,0,-999,0,0.00
2013-5-28,80,70,62,-100,-100,-100,0,0,100,0.00,40.00,0,-999,0,0.00
2013-5-29,84,75,65,-100,-100,-100,0,0,100,0.00,40.00,0,-999,0,0.00
2013-5-30,98,81,63,-100,-100,-100,0,0,100,0.00,40.00,0,-999,0,0.00
2013-5-31,98,84,63,-100,-100,-100,0,0,100,0.00,40.00,0,-999,0,0.00
2013-6-1,103,86,66,-100,-100,-100,0,0,100,0.00,40.00,0,-999,0,0.00
2013-6-2,99,86,75,-100,-100,-100,0,0,100,0.00,40.00,0,-999,0,0.00
2013-6-3,94,86,72,-100,-100,-100,0,0,100,0.00,40.00,0,-999,0,0.00
2013-6-4,96,78,66,-100,-100,-100,0,0,100,0.00,40.00,0,-999,0,0.00
2013-6-5,101,87,70,-100,-100,-100,0,0,100,0.00,40.00,0,-999,0,0.00
2013-6-6,105,87,76,-100,-100,-100,0,0,100,0.00,40.00,0,-999,0,0.00
2013-6-7,106,88,73,-100,-100,-100,0,0,100,0.00,40.00,0,-999,0,0.00
2013-6-8,111,92,77,-100,-100,-100,0,0,100,0.00,40.00,0,-999,0,0.00
2013-6-9,100,87,73,-100,-100,-100,0,0,100,0.00,40.00,0,-999,0,0.00
2013-6-10,87,77,65,-100,-100,-100,0,0,100,0.00,40.00,0,-999,0,0.00
2013-6-11,101,87,70,-100,-100,-100,0,0,100,0.00,40.00,0,-999,0,0.00
2013-6-12,96,82,72,-100,-100,-100,0,0,100,0.00,40.00,0,-999,0,0.00
2013-6-13,98,80,66,-100,-100,-100,0,0,100,0.00,40.00,0,-999,0,0.00
2013-6-14,98,80,60,-100,-100,-100,0,0,100,0.00,40.00,0,-999,0,0.00
2013-6-15,94,78,64,-100,-100,-100,0,0,100,0.00,40.00,0,-999,0,0.00
2013-6-16,95,79,66,-100,-100,-100,0,0,100,0.00,40.00,0,-999,0,0.00
2013-6-17,98,83,70,-100,-100,-100,0,0,100,0.00,40.00,0,-999,0,0.00
2013-6-18,94,81,66,-100,-100,-100,0,0,100,0.00,40.00,0,-999,0,0.00
2013-6-19,91,75,61,-100,-100,-100,0,0,100,0.00,40.00,0,-999,0,0.00
2013-6-20,88,73,65,-100,-100,-100,0,0,100,0.00,40.00,0,-999,0,0.00
2013-6-22,98,87,76,-100,-100,-100,0,0,100,0.00,40.00,0,-999,0,0.00
2013-6-23,87,80,71,-100,-100,-100,0,0,100,0.00,40.00,0,-999,0,0.00
2013-6-24,79,73,66,-100,-100,-100,0,0,100,0.00,40.00,0,-999,0,0.00
2013-6-25,97,83,67,-100,-100,-100,0,0,100,0.00,40.00,0,-999,0,0.00
2013-6-26,104,90,71,-100,-100,-100,0,0,100,0.00,40.00,0,-999,0,0.00
2013-6-27,105,92,78,-100,-100,-100,0,0,100,0.00,40.00,0,-999,0,0.00
2013-6-28,110,94,80,-100,-100,-100,0,0,100,0.00,40.00,0,-999,0,0.00
2013-6-29,113,92,79,-100,-100,-100,0,0,100,0.00,40.00,0,-999,0,0.00
2013-6-30,114,95,78,-100,-100,-100,0,0,100,0.00,40.00,0,-999,0,0.00
2013-7-1,102,93,87,-100,-100,-100,0,0,100,0.00,40.00,0,-999,0,0.00
2013-7-2,105,92,86,-100,-100,-100,0,0,100,0.00,40.00,0,-999,0,0.00
2013-7-3,108,96,87,-100,-100,-100,0,0,100,0.00,40.00,0,-999,0,0.00
2013-7-4,106,94,83,-100,-100,-100,0,0,100,0.00,40.00,0,-999,0,0.00
2013-7-5,100,92,83,-100,-100,-100,0,0,100,0.00,40.00,0,-999,0,0.00
2013-7-6,99,88,82,-100,-100,-100,0,0,100,0.00,40.00,0,-999,0,0.00
2013-7-7,105,92,77,-100,-100,-100,0,0,100,0.00,40.00,0,-999,0,0.00
2013-7-8,106,88,80,-100,-100,-100,0,0,100,0.00,40.00,0,-999,0,0.00
2013-7-9,109,92,77,-100,-100,-100,0,0,100,0.00,40.00,0,-999,0,0.00
2013-7-10,97,85,81,-100,-100,-100,0,0,100,0.00,40.00,0,-999,0,0.00
2013-7-11,94,87,78,-100,-100,-100,0,0,100,0.00,40.00,0,-999,0,0.00
2013-7-12,101,88,76,-100,-100,-100,0,0,100,0.00,40.00,0,-999,0,0.00
2013-7-13,106,93,75,-100,-100,-100,0,0,100,0.00,40.00,0,-999,0,0.00
2013-7-14,106,93,77,-100,-100,-100,0,0,100,0.00,40.00,0,-999,0,0.00
2013-7-15,100,86,79,-100,-100,-100,0,0,100,0.00,40.00,0,-999,0,0.00
2013-7-16,98,82,72,-100,-100,-100,0,0,100,0.00,40.00,0,-999,0,0.00
2013-7-17,103,88,73,-100,-100,-100,0,0,100,0.00,40.00,0,-999,0,0.00
2013-7-18,105,94,70,-100,-100,-100,0,0,100,0.00,40.00,0,-999,0,0.00
2013-7-19,109,90,73,-100,-100,-100,0,0,100,0.00,40.00,0,-999,0,0.00
2013-7-20,106,92,79,-100,-100,-100,0,0,100,0.00,40.00,0,-999,0,0.00
2013-7-21,97,87,82,-100,-100,-100,0,0,100,0.00,40.00,0,-999,0,0.00
2013-7-22,97,90,76,-100,-100,-100,0,0,100,0.00,40.00,0,-999,0,0.00
2013-7-23,100,85,74,-100,-100,-100,0,0,100,0.00,40.00,0,-999,0,0.00
2013-7-24,105,87,76,-100,-100,-100,0,0,100,0.00,40.00,0,-999,0,0.00
2013-7-25,106,91,80,-100,-100,-100,0,0,100,0.00,40.00,0,-999,0,0.00
2013-7-26,97,89,83,-100,-100,-100,0,0,100,0.00,40.00,0,-999,0,0.00
2013-7-27,102,91,80,-100,-100,-100,0,0,100,0.00,40.00,0,-999,0,0.00
2013-7-28,98,87,79,-100,-100,-100,0,0,100,0.00,40.00,0,-999,0,0.00
2013-7-29,98,85,76,-100,-100,-100,0,0,100,0.00,40.00,0,-999,0,0.00
2013-7-30,99,88,77,-100,-100,-100,0,0,100,0.00,40.00,0,-999,0,0.00
2013-7-31,100,83,68,-100,-100,-100,0,0,100,0.00,40.00,0,-999,0,0.00
2013-8-1,99,86,67,-100,-100,-100,0,0,100,0.00,40.00,0,-999,0,0.00
2013-8-2,96,82,68,-100,-100,-100,0,0,100,0.00,40.00,0,-999,0,0.00
2013-8-3,98,83,73,-100,-100,-100,0,0,100,0.00,40.00,0,-999,0,0.00
2013-8-4,100,82,73,-100,-100,-100,0,0,100,0.00,40.00,0,-999,0,0.00
2013-8-5,101,83,71,-100,-100,-100,0,0,100,0.00,40.00,0,-999,0,0.00
2013-8-6,97,85,73,-100,-100,-100,0,0,100,0.00,40.00,0,-999,0,0.00
2013-8-7,94,81,71,-100,-100,-100,0,0,100,0.00,40.00,0,-999,0,0.00
2013-8-8,93,76,67,-100,-100,-100,0,0,100,0.00,40.00,0,-999,0,0.00
2013-8-9,95,78,69,-100,-100,-100,0,0,100,0.00,40.00,0,-999,0,0.00
2013-8-10,94,76,68,-100,-100,-100,0,0,100,0.00,40.00,0,-999,0,0.00
2013-8-11,98,81,67,-100,-100,-100,0,0,100,0.00,40.00,0,-999,0,0.00
2013-8-12,100,78,69,-100,-100,-100,0,0,100,0.00,40.00,0,-999,0,0.00
2013-8-13,105,88,70,-100,-100,-100,0,0,100,0.00,40.00,0,-999,0,0.00
2013-8-14,105,87,73,-100,-100,-100,0,0,100,0.00,40.00,0,-999,0,0.00
2013-8-15,105,89,73,-100,-100,-100,0,0,100,0.00,40.00,0,-999,0,0.00
2013-8-16,104,88,76,-100,-100,-100,0,0,100,0.00,40.00,0,-999,0,0.00
2013-8-17,105,91,81,-100,-100,-100,0,0,100,0.00,40.00,0,-999,0,0.00
2013-8-18,107,91,72,-100,-100,-100,0,0,100,0.00,40.00,0,-999,0,0.00
2013-8-19,99,87,76,-100,-100,-100,0,0,100,0.00,40.00,0,-999,0,0.00
2013-8-20,102,90,77,-100,-100,-100,0,0,100,0.00,40.00,0,-999,0,0.00
2013-8-21,104,87,76,-100,-100,-100,0,0,100,0.00,40.00,0,-999,0,0.00
2013-8-22,103,90,77,-100,-100,-100,0,0,100,0.00,40.00,0,-999,0,0.00
2013-8-23,103,88,72,-100,-100,-100,0,0,100,0.00,40.00,0,-999,0,0.00
2013-8-24,99,80,68,-100,-100,-100,0,0,100,0.00,40.00,0,-999,0,0.00
2013-8-25,98,85,67,-100,-100,-100,0,0,100,0.00,40.00,0,-999,0,0.00
2013-8-26,93,81,68,-100,-100,-100,0,0,100,0.00,40.00,0,-999,0,0.00
2013-8-27,89,79,73,-100,-100,-100,0,0,100,0.00,40.00,0,-999,0,0.00
2013-8-28,101,92,83,-100,-100,-100,0,0,100,0.00,40.00,0,-999,0,0.00
2013-8-29,104,91,76,-100,-100,-100,0,0,100,0.00,40.00,0,-999,0,0.00
2013-8-30,98,86,76,-100,-100,-100,0,0,100,0.00,40.00,0,-999,0,0.00
2013-8-31,97,87,81,-100,-100,-100,0,0,100,0.00,40.00,0,-999,0,0.00
2013-9-1,96,84,78,-100,-100,-100,0,0,100,0.00,40.00,0,-999,0,0.00
2013-9-2,97,87,80,-100,-100,-100,0,0,100,0.00,40.00,0,-999,0,0.00
2013-9-3,100,89,81,-100,-100,-100,0,0,100,0.00,40.00,0,-999,0,0.00
2013-9-4,103,88,76,-100,-100,-100,0,0,100,0.00,40.00,0,-999,0,0.00
2013-9-5,105,92,76,-100,-100,-100,0,0,100,0.00,40.00,0,-999,0,0.00
2013-9-6,105,83,73,-100,-100,-100,0,0,100,0.00,40.00,0,-999,0,0.00
2013-9-7,104,89,74,-100,-100,-100,0,0,100,0.00,40.00,0,-999,0,0.00
2013-9-8,100,91,79,-100,-100,-100,0,0,100,0.00,40.00,0,-999,0,0.00
2013-9-9,99,84,75,-100,-100,-100,0,0,100,0.00,40.00,0,-999,0,0.00
2013-9-10,94,84,77,-100,-100,-100,0,0,100,0.00,40.00,0,-999,0,0.00
2013-9-11,94,84,74,-100,-100,-100,0,0,100,0.00,40.00,0,-999,0,0.00
2013-9-12,98,86,72,-100,-100,-100,0,0,100,0.00,40.00,0,-999,0,0.00
2013-9-13,100,86,71,-100,-100,-100,0,0,100,0.00,40.00,0,-999,0,0.00
2013-9-14,104,87,69,-100,-100,-100,0,0,100,0.00,40.00,0,-999,0,0.00
2013-9-15,103,87,73,-100,-100,-100,0,0,100,0.00,40.00,0,-999,0,0.00
2013-9-16,101,86,71,-100,-100,-100,0,0,100,0.00,40.00,0,-999,0,0.00
2013-9-17,96,80,72,-100,-100,-100,0,0,100,0.00,40.00,0,-999,0,0.00
2013-9-18,73,67,63,-100,-100,-100,0,0,100,0.00,40.00,0,-999,0,0.00
2013-9-19,95,80,62,-100,-100,-100,0,0,100,0.00,40.00,0,-999,0,0.00
2013-9-20,92,78,68,-100,-100,-100,0,0,100,0.00,40.00,0,-999,0,0.00
2013-9-21,81,69,62,-100,-100,-100,0,0,100,0.00,40.00,0,-999,0,0.00
2013-9-22,78,67,57,-100,-100,-100,0,0,100,0.00,40.00,0,-999,0,0.00
2013-9-23,89,72,54,-100,-100,-100,0,0,100,0.00,40.00,0,-999,0,0.00
2013-9-24,94,76,65,-100,-100,-100,0,0,100,0.00,40.00,0,-999,0,0.00
2013-9-25,81,70,62,-100,-100,-100,0,0,100,0.00,40.00,0,-999,0,0.00
2013-9-26,73,63,56,-100,-100,-100,0,0,100,0.00,40.00,0,-999,0,0.00
2013-9-27,76,67,51,-100,-100,-100,0,0,100,0.00,40.00,0,-999,0,0.00
2013-9-28,83,67,51,-100,-100,-100,0,0,100,0.00,40.00,0,-999,0,0.00
2013-9-29,94,75,58,-100,-100,-100,0,0,100,0.00,40.00,0,-999,0,0.00
2013-9-30,90,73,61,-100,-100,-100,0,0,100,0.00,40.00,0,-999,0,0.00
2013-10-1,84,77,69,-100,-100,-100,0,0,100,0.00,40.00,0,-999,0,0.00
2013-10-2,86,73,63,-100,-100,-100,0,0,100,0.00,40.00,0,-999,0,0.00
2013-10-3,80,69,60,-100,-100,-100,0,0,100,0.00,40.00,0,-999,0,0.00
2013-10-4,73,65,51,-100,-100,-100,0,0,100,0.00,40.00,0,-999,0,0.00
2013-10-5,76,65,51,-100,-100,-100,0,0,100,0.00,40.00,0,-999,0,0.00
2013-10-6,83,72,50,-100,-100,-100,0,0,100,0.00,40.00,0,-999,0,0.00
2013-10-7,89,71,57,-100,-100,-100,0,0,100,0.00,40.00,0,-999,0,0.00
2013-10-8,81,70,60,-100,-100,-100,0,0,100,0.00,40.00,0,-999,0,0.00
2013-10-9,60,55,50,-100,-100,-100,0,0,100,0.00,40.00,0,-999,0,0.00
2013-10-10,71,58,47,-100,-100,-100,0,0,100,0.00,40.00,0,-999,0,0.00
2013-10-11,76,62,51,-100,-100,-100,0,0,100,0.00,40.00,0,-999,0,0.00
2013-10-12,81,67,54,-100,-100,-100,0,0,100,0.00,40.00,0,-999,0,0.00
2013-10-13,76,64,57,-100,-100,-100,0,0,100,0.00,40.00,0,-999,0,0.00
2013-10-14,75,63,49,-100,-100,-100,0,0,100,0.00,40.00,0,-999,0,0.00
2013-10-15,76,65,51,-100,-100,-100,0,0,100,0.00,40.00,0,-999,0,0.00
2013-10-16,74,62,48,-100,-100,-100,0,0,100,0.00,40.00,0,-999,0,0.00
2013-10-17,81,68,53,-100,-100,-100,0,0,100,0.00,40.00,0,-999,0,0.00
2013-10-18,82,66,51,-100,-100,-100,0,0,100,0.00,40.00,0,-999,0,0.00
2013-10-19,83,66,53,-100,-100,-100,0,0,100,0.00,40.00,0,-999,0,0.00
2013-10-20,88,70,54,-100,-100,-100,0,0,100,0.00,40.00,0,-999,0,0.00
2013-10-21,87,68,55,-100,-100,-100,0,0,100,0.00,40.00,0,-999,0,0.00
2013-10-22,84,68,54,-100,-100,-100,0,0,100,0.00,40.00,0,-999,0,0.00
2013-10-23,84,70,55,-100,-100,-100,0,0,100,0.00,40.00,0,-999,0,0.00
2013-10-24,86,74,58,-100,-100,-100,0,0,100,0.00,40.00,0,-999,0,0.00
2013-10-25,87,71,57,-100,-100,-100,0,0,100,0.00,40.00,0,-999,0,0.00
2013-10-26,87,73,56,-100,-100,-100,0,0,100,0.00,40.00,0,-999,0,0.00
2013-10-27,86,70,58,-100,-100,-100,0,0,100,0.00,40.00,0,-999,0,0.00
2013-10-28,64,55,51,-100,-100,-100,0,0,100,0.00,40.00,0,-999,0,0.00
2013-10-29,63,56,50,-100,-100,-100,0,0,100,0.00,40.00,0,-999,0,0.00
2013-10-30,65,58,46,-100,-100,-100,0,0,100,0.00,40.00,0,-999,0,0.00
2013-10-31,71,57,43,-100,-100,-100,0,0,100,0.00,40.00,0,-999,0,0.00
2013-11-1,76,61,45,-100,-100,-100,0,0,100,0.00,40.00,0,-999,0,0.00
2013-11-2,76,63,50,-100,-100,-100,0,0,100,0.00,40.00,0,-999,0,0.00
2013-11-3,76,66,56,-100,-100,-100,0,0,100,0.00,40.00,0,-999,0,0.00
2013-11-4,68,58,48,-100,-100,-100,0,0,100,0.00,40.00,0,-999,0,0.00
2013-11-5,65,55,44,-100,-100,-100,0,0,100,0.00,40.00,0,-999,0,0.00
2013-11-6,71,57,41,-100,-100,-100,0,0,100,0.00,40.00,0,-999,0,0.00
2013-11-7,75,59,47,-100,-100,-100,0,0,100,0.00,40.00,0,-999,0,0.00
2013-11-8,78,65,49,-100,-100,-100,0,0,100,0.00,40.00,0,-999,0,0.00
2013-11-9,76,63,49,-100,-100,-100,0,0,100,0.00,40.00,0,-999,0,0.00
2013-11-10,73,62,45,-100,-100,-100,0,0,100,0.00,40.00,0,-999,0,0.00
2013-11-11,76,61,47,-100,-100,-100,0,0,100,0.00,40.00,0,-999,0,0.00
2013-11-12,74,63,54,-100,-100,-100,0,0,100,0.00,40.00,0,-999,0,0.00
2013-11-13,79,64,49,-100,-100,-100,0,0,100,0.00,40.00,0,-999,0,0.00
2013-11-14,79,67,51,-100,-100,-100,0,0,100,0.00,40.00,0,-999,0,0.00
2013-11-15,70,63,57,-100,-100,-100,0,0,100,0.00,40.00,0,-999,0,0.00
2013-11-16,65,59,54,-100,-100,-100,0,0,100,0.00,40.00,0,-999,0,0.00
2013-11-17,67,57,50,-100,-100,-100,0,0,100,0.00,40.00,0,-999,0,0.00
2013-11-18,68,57,46,-100,-100,-100,0,0,100,0.00,40.00,0,-999,0,0.00
2013-11-19,69,59,52,-100,-100,-100,0,0,100,0.00,40.00,0,-999,0,0.00
2013-11-20,69,60,55,-100,-100,-100,0,0,100,0.00,40.00,0,-999,0,0.00
2013-11-21,58,55,47,-100,-100,-100,0,0,100,0.00,40.00,0,-999,0,0.00
2013-11-22,47,44,43,-100,-100,-100,0,0,100,0.00,40.00,0,-999,0,0.00
2013-11-23,49,46,43,-100,-100,-100,0,0,100,0.00,40.00,0,-999,0,0.00
2013-11-24,57,49,43,-100,-100,-100,0,0,100,0.00,40.00,0,-999,0,0.00
2013-11-25,63,51,41,-100,-100,-100,0,0,100,0.00,40.00,0,-999,0,0.00
2013-11-26,65,54,43,-100,-100,-100,0,0,100,0.00,40.00,0,-999,0,0.00
2013-11-27,62,53,47,-100,-100,-100,0,0,100,0.00,40.00,0,-999,0,0.00
2013-11-28,60,52,44,-100,-100,-100,0,0,100,0.00,40.00,0,-999,0,0.00
2013-11-29,56,53,47,-100,-100,-100,0,0,100,0.00,40.00,0,-999,0,0.00
2013-11-30,64,52,45,-100,-100,-100,0,0,100,0.00,40.00,0,-999,0,0.00
2013-12-1,66,54,43,-100,-100,-100,0,0,100,0.00,40.00,0,-999,0,0.00
2013-12-2,75,60,44,-100,-100,-100,0,0,100,0.00,40.00,0,-999,0,0.00
2013-12-3,68,61,54,-100,-100,-100,0,0,100,0.00,40.00,0,-999,0,0.00
2013-12-4,49,44,39,-100,-100,-100,0,0,100,0.00,40.00,0,-999,0,0.00
2013-12-5,47,41,34,-100,-100,-100,0,0,100,0.00,40.00,0,-999,0,0.00
2013-12-6,54,42,31,-100,-100,-100,0,0,100,0.00,40.00,0,-999,0,0.00
2013-12-7,49,42,37,-100,-100,-100,0,0,100,0.00,40.00,0,-999,0,0.00
2013-12-8,43,37,30,-100,-100,-100,0,0,100,0.00,40.00,0,-999,0,0.00
2013-12-9,45,36,25,-100,-100,-100,0,0,100,0.00,40.00,0,-999,0,0.00
2013-12-10,47,34,25,-100,-100,-100,0,0,100,0.00,40.00,0,-999,0,0.00
2013-12-11,53,40,29,-100,-100,-100,0,0,100,0.00,40.00,0,-999,0,0.00
2013-12-12,58,45,34,-100,-100,-100,0,0,100,0.00,40.00,0,-999,0,0.00
2013-12-13,65,55,40,-100,-100,-100,0,0,100,0.00,40.00,0,-999,0,0.00
2013-12-14,62,48,37,-100,-100,-100,0,0,100,0.00,40.00,0,-999,0,0.00
2013-12-15,63,50,37,-100,-100,-100,0,0,100,0.00,40.00,0,-999,0,0.00
2013-12-16,66,53,43,-100,-100,-100,0,0,100,0.00,40.00,0,-999,0,0.00
2013-12-17,68,57,45,-100,-100,-100,0,0,100,0.00,40.00,0,-999,0,0.00
2013-12-18,65,58,53,-100,-100,-100,0,0,100,0.00,40.00,0,-999,0,0.00
2013-12-19,57,52,47,-100,-100,-100,0,0,100,0.00,40.00,0,-999,0,0.00
2013-12-20,54,46,37,-100,-100,-100,0,0,100,0.00,40.00,0,-999,0,0.00
2013-12-21,69,52,40,-100,-100,-100,0,0,100,0.00,40.00,0,-999,0,0.00
2013-12-22,62,50,40,-100,-100,-100,0,0,100,0.00,40.00,0,-999,0,0.00
2013-12-23,65,50,41,-100,-100,-100,0,0,100,0.00,40.00,0,-999,0,0.00
2013-12-24,66,53,41,-100,-100,-100,0,0,100,0.00,40.00,0,-999,0,0.00
2013-12-25,66,49,41,-100,-100,-100,0,0,100,0.00,40.00,0,-999,0,0.00
2013-12-26,65,48,38,-100,-100,-100,0,0,100,0.00,40.00,0,-999,0,0.00
2013-12-27,65,51,37,-100,-100,-100,0,0,100,0.00,40.00,0,-999,0,0.00
2013-12-28,77,57,44,-100,-100,-100,0,0,100,0.00,40.00,0,-999,0,0.00
2013-12-29,63,52,40,-100,-100,-100,0,0,100,0.00,40.00,0,-999,0,0.00
2013-12-30,62,48,36,-100,-100,-100,0,0,100,0.00,40.00,0,-999,0,0.00
2013-12-31,65,51,38,-100,-100,-100,0,0,100,0.00,40.00,0,-999,0,0.00
2014-1-1,65,51,41,-100,-100,-100,0,0,100,0.00,40.00,0,-999,0,0.00
2014-1-2,66,53,43,-100,-100,-100,0,0,100,0.00,40.00,0,-999,0,0.00